| time (UTC) | temp F | wind direction | speed knots | gust knots | rain 1hr in | rain 24hr in | rain mn in | humidity % | barometer mb |
| 20260504185420 | 82 | 115 | 3.5 | 7.0 | 0.00 | 0.00 | 0.00 | 55 | 1014.9 |
| 20260504184915 | 82 | 162 | 2.6 | 6.1 | 0.00 | 0.00 | 0.00 | 54 | 1014.6 |
| 20260504184411 | 83 | 143 | 4.3 | 7.8 | 0.00 | 0.00 | 0.00 | 54 | 1014.8 |
| 20260504183908 | 82 | 254 | 0.9 | 3.5 | 0.00 | 0.00 | 0.00 | 52 | 1014.9 |
| 20260504183405 | 82 | 35 | 0.0 | 2.6 | 0.00 | 0.00 | 0.00 | 53 | 1014.8 |
| 20260504182903 | 81 | 161 | 3.5 | 8.7 | 0.00 | 0.00 | 0.00 | 56 | 1014.8 |
| 20260504182400 | 83 | 109 | 3.5 | 5.2 | 0.00 | 0.00 | 0.00 | 53 | 1014.8 |
| 20260504181856 | 82 | 75 | 0.9 | 1.7 | 0.00 | 0.00 | 0.00 | 55 | 1015.0 |
| 20260504181354 | 83 | 135 | 5.2 | 7.8 | 0.00 | 0.00 | 0.00 | 50 | 1015.2 |
| 20260504180853 | 82 | 56 | 1.7 | 6.1 | 0.00 | 0.00 | 0.00 | 55 | 1015.0 |
| 20260504180351 | 82 | 264 | 1.7 | 2.6 | 0.00 | 0.00 | 0.00 | 54 | 1015.3 |
| 20260504175849 | 81 | 293 | 1.7 | 3.5 | 0.00 | 0.00 | 0.00 | 54 | 1015.4 |
| 20260504175345 | 81 | 121 | 3.5 | 7.0 | 0.00 | 0.00 | 0.00 | 55 | 1015.5 |
| 20260504174843 | 81 | 297 | 2.6 | 7.8 | 0.00 | 0.00 | 0.00 | 55 | 1015.5 |
| 20260504174341 | 82 | 123 | 2.6 | 6.1 | 0.00 | 0.00 | 0.00 | 54 | 1015.7 |
| 20260504173837 | 82 | 218 | 2.6 | 3.5 | 0.00 | 0.00 | 0.00 | 53 | 1015.5 |
| 20260504173334 | 82 | 192 | 1.7 | 5.2 | 0.00 | 0.00 | 0.00 | 55 | 1015.6 |
| 20260504172831 | 81 | 146 | 5.2 | 6.1 | 0.00 | 0.00 | 0.00 | 53 | 1015.8 |
| 20260504172328 | 80 | 112 | 2.6 | 3.5 | 0.00 | 0.00 | 0.00 | 56 | 1016.0 |
| 20260504171824 | 81 | 164 | 5.2 | 12.2 | 0.00 | 0.00 | 0.00 | 54 | 1016.0 |
| 20260504171321 | 79 | 156 | 3.5 | 6.1 | 0.00 | 0.00 | 0.00 | 58 | 1016.0 |
| 20260504170818 | 80 | 135 | 4.3 | 6.1 | 0.00 | 0.00 | 0.00 | 55 | 1016.3 |
| 20260504170315 | 79 | 64 | 2.6 | 5.2 | 0.00 | 0.00 | 0.00 | 56 | 1016.3 |
| 20260504160233 | 80 | 267 | 1.7 | 6.1 | 0.00 | 0.00 | 0.00 | 56 | 1017.0 |
| 20260504150659 | 78 | 143 | 1.7 | 3.5 | 0.00 | 0.00 | 0.00 | 61 | 1016.7 |
| 20260504150155 | 76 | 144 | 4.3 | 6.1 | 0.00 | 0.00 | 0.00 | 62 | 1016.8 |
| 20260504141124 | 74 | 166 | 2.6 | 5.2 | 0.00 | 0.00 | 0.00 | 65 | 1017.0 |
| 20260504140621 | 73 | 110 | 3.5 | 5.2 | 0.00 | 0.00 | 0.00 | 65 | 1016.7 |
| 20260504140117 | 72 | 130 | 2.6 | 3.5 | 0.00 | 0.00 | 0.00 | 68 | 1016.9 |
| 20260504130545 | 65 | 127 | 0.9 | 2.6 | 0.00 | 0.00 | 0.00 | 78 | 1016.8 |
| 20260504110432 | 55 | 1 | 0.0 | 0.0 | 0.00 | 0.00 | 0.00 | 93 | 1016.5 |
| 20260504100349 | 56 | 330 | 0.0 | 0.0 | 0.00 | 0.00 | 0.00 | 91 | 1016.9 |
| 20260504081742 | 55 | 306 | 0.0 | 0.0 | 0.00 | 0.00 | 0.00 | 91 | 1017.3 |
| 20260504081239 | 56 | 306 | 0.0 | 0.0 | 0.00 | 0.00 | 0.00 | 90 | 1017.4 |
| 20260504080735 | 56 | 306 | 0.0 | 0.0 | 0.00 | 0.00 | 0.00 | 90 | 1017.6 |
| 20260504080232 | 56 | 306 | 0.0 | 0.0 | 0.00 | 0.00 | 0.00 | 89 | 1017.9 |
| 20260504070200 | 56 | 120 | 0.0 | 0.0 | 0.00 | 0.00 | 0.00 | 88 | 1018.5 |
| 20260504060120 | 57 | 120 | 0.0 | 0.0 | 0.00 | 0.00 | 0.00 | 83 | 1019.0 |
| 20260504050548 | 58 | 193 | 0.0 | 0.0 | 0.00 | 0.00 | 0.00 | 82 | 1019.7 |
| 20260504045542 | 58 | 181 | 0.0 | 0.0 | 0.00 | 0.00 | 0.00 | 82 | 1019.4 |
| 20260504045037 | 57 | 140 | 0.0 | 0.9 | 0.00 | 0.00 | 0.00 | 84 | 1019.3 |
| 20260504044535 | 57 | 118 | 0.0 | 0.0 | 0.00 | 0.00 | 0.00 | 82 | 1019.7 |
| 20260504044032 | 58 | 116 | 0.0 | 0.0 | 0.00 | 0.00 | 0.00 | 82 | 1019.3 |
| 20260504043529 | 58 | 116 | 0.0 | 0.0 | 0.00 | 0.00 | 0.00 | 81 | 1019.6 |
| 20260504043026 | 58 | 116 | 0.0 | 0.0 | 0.00 | 0.00 | 0.00 | 80 | 1019.6 |
| 20260504042523 | 58 | 116 | 0.0 | 0.0 | 0.00 | 0.00 | 0.00 | 80 | 1019.8 |
| 20260504042020 | 59 | 116 | 0.0 | 0.0 | 0.00 | 0.00 | 0.00 | 79 | 1019.6 |
| 20260504041516 | 59 | 116 | 0.0 | 0.0 | 0.00 | 0.00 | 0.00 | 79 | 1019.9 |
| 20260504041012 | 59 | 116 | 0.0 | 0.0 | 0.00 | 0.00 | 0.00 | 77 | 1019.6 |
| 20260504040510 | 60 | 116 | 0.0 | 0.0 | 0.00 | 0.00 | 0.00 | 77 | 1019.7 |
| 20260504040006 | 60 | 116 | 0.0 | 0.0 | 0.00 | 0.00 | 0.00 | 75 | 1019.5 |
| 20260504035503 | 60 | 116 | 0.0 | 0.0 | 0.00 | 0.00 | 0.00 | 75 | 1019.3 |
| 20260504034959 | 60 | 116 | 0.0 | 0.0 | 0.00 | 0.00 | 0.00 | 75 | 1019.5 |
| 20260504034457 | 61 | 116 | 0.0 | 0.0 | 0.00 | 0.00 | 0.00 | 74 | 1019.8 |
| 20260504033954 | 61 | 138 | 0.0 | 0.0 | 0.00 | 0.00 | 0.00 | 72 | 1019.7 |
| 20260504033452 | 62 | 138 | 0.0 | 0.0 | 0.00 | 0.00 | 0.00 | 70 | 1019.6 |
| 20260504032949 | 63 | 138 | 0.0 | 0.0 | 0.00 | 0.00 | 0.00 | 69 | 1019.6 |
| 20260504032445 | 63 | 138 | 0.0 | 0.0 | 0.00 | 0.00 | 0.00 | 69 | 1019.7 |
| 20260504031942 | 64 | 138 | 0.0 | 0.0 | 0.00 | 0.00 | 0.00 | 68 | 1019.5 |
| 20260504031439 | 64 | 140 | 0.0 | 0.9 | 0.00 | 0.00 | 0.00 | 68 | 1019.5 |
| 20260504030936 | 64 | 108 | 0.0 | 0.9 | 0.00 | 0.00 | 0.00 | 67 | 1019.4 |
| 20260504030433 | 64 | 144 | 0.0 | 0.9 | 0.00 | 0.00 | 0.00 | 67 | 1019.4 |
| 20260504025929 | 65 | 126 | 0.0 | 0.0 | 0.00 | 0.00 | 0.00 | 66 | 1019.5 |
| 20260504025426 | 65 | 143 | 0.0 | 0.0 | 0.00 | 0.00 | 0.00 | 66 | 1019.5 |
| 20260504024923 | 65 | 127 | 0.0 | 1.7 | 0.00 | 0.00 | 0.00 | 65 | 1019.4 |
| 20260504024420 | 66 | 142 | 0.0 | 0.9 | 0.00 | 0.00 | 0.00 | 64 | 1019.3 |
| 20260504023917 | 66 | 162 | 0.0 | 2.6 | 0.00 | 0.00 | 0.00 | 63 | 1019.2 |
| 20260504023413 | 66 | 135 | 0.0 | 2.6 | 0.00 | 0.00 | 0.00 | 63 | 1019.2 |
| 20260504022909 | 66 | 126 | 0.9 | 2.6 | 0.00 | 0.00 | 0.00 | 63 | 1019.4 |
| 20260504022406 | 67 | 149 | 0.9 | 2.6 | 0.00 | 0.00 | 0.00 | 62 | 1019.2 |
| 20260504021902 | 67 | 70 | 0.0 | 0.9 | 0.00 | 0.00 | 0.00 | 61 | 1019.2 |
| 20260504021400 | 67 | 142 | 0.9 | 1.7 | 0.00 | 0.00 | 0.00 | 60 | 1019.1 |
| 20260504020857 | 68 | 167 | 0.0 | 1.7 | 0.00 | 0.00 | 0.00 | 58 | 1019.1 |
| 20260504020353 | 68 | 153 | 0.9 | 1.7 | 0.00 | 0.00 | 0.00 | 57 | 1019.0 |
| 20260504015849 | 69 | 130 | 3.5 | 3.5 | 0.00 | 0.00 | 0.00 | 56 | 1019.3 |
| 20260504015346 | 69 | 105 | 1.7 | 3.5 | 0.00 | 0.00 | 0.00 | 55 | 1018.9 |
| 20260504014842 | 69 | 156 | 2.6 | 3.5 | 0.00 | 0.00 | 0.00 | 55 | 1019.2 |
| 20260504014338 | 69 | 170 | 1.7 | 3.5 | 0.00 | 0.00 | 0.00 | 54 | 1018.9 |
| 20260504013836 | 69 | 133 | 2.6 | 3.5 | 0.00 | 0.00 | 0.00 | 53 | 1019.0 |
| 20260504013333 | 69 | 101 | 0.9 | 1.7 | 0.00 | 0.00 | 0.00 | 53 | 1019.1 |
| 20260504012830 | 70 | 129 | 1.7 | 3.5 | 0.00 | 0.00 | 0.00 | 53 | 1019.1 |
| 20260504012328 | 70 | 145 | 0.9 | 1.7 | 0.00 | 0.00 | 0.00 | 52 | 1019.1 |
| 20260504011825 | 70 | 147 | 2.6 | 5.2 | 0.00 | 0.00 | 0.00 | 51 | 1019.0 |
| 20260504011321 | 70 | 117 | 1.7 | 2.6 | 0.00 | 0.00 | 0.00 | 52 | 1019.0 |
| 20260504010817 | 71 | 282 | 0.9 | 2.6 | 0.00 | 0.00 | 0.00 | 50 | 1019.1 |
| 20260504010313 | 71 | 134 | 2.6 | 3.5 | 0.00 | 0.00 | 0.00 | 49 | 1019.0 |
| 20260504005810 | 71 | 122 | 1.7 | 5.2 | 0.00 | 0.00 | 0.00 | 49 | 1018.9 |
| 20260504005307 | 71 | 261 | 1.7 | 2.6 | 0.00 | 0.00 | 0.00 | 48 | 1019.0 |
| 20260504004804 | 72 | 158 | 2.6 | 3.5 | 0.00 | 0.00 | 0.00 | 47 | 1019.0 |
| 20260504004302 | 72 | 127 | 1.7 | 5.2 | 0.00 | 0.00 | 0.00 | 46 | 1019.0 |
| 20260504003758 | 72 | 101 | 1.7 | 5.2 | 0.00 | 0.00 | 0.00 | 46 | 1019.1 |
| 20260504003255 | 72 | 140 | 0.9 | 2.6 | 0.00 | 0.00 | 0.00 | 47 | 1018.9 |
| 20260504002751 | 73 | 164 | 1.7 | 2.6 | 0.00 | 0.00 | 0.00 | 46 | 1018.9 |
| 20260504002249 | 73 | 136 | 2.6 | 3.5 | 0.00 | 0.00 | 0.00 | 45 | 1019.1 |
| 20260504001746 | 73 | 133 | 1.7 | 6.1 | 0.00 | 0.00 | 0.00 | 44 | 1019.0 |
| 20260504001243 | 73 | 137 | 3.5 | 5.2 | 0.00 | 0.00 | 0.00 | 44 | 1018.8 |
| 20260504000740 | 73 | 146 | 2.6 | 6.1 | 0.00 | 0.00 | 0.00 | 45 | 1018.8 |
| 20260504000237 | 74 | 155 | 1.7 | 7.0 | 0.00 | 0.00 | 0.00 | 44 | 1018.9 |
| 20260503235735 | 74 | 95 | 2.6 | 5.2 | 0.00 | 0.00 | 0.00 | 45 | 1019.0 |
| 20260503235232 | 74 | 229 | 1.7 | 5.2 | 0.00 | 0.00 | 0.00 | 43 | 1019.0 |
| 20260503234730 | 75 | 137 | 3.5 | 6.1 | 0.00 | 0.00 | 0.00 | 42 | 1019.0 |
| 20260503234228 | 75 | 100 | 5.2 | 7.8 | 0.00 | 0.00 | 0.00 | 41 | 1019.1 |
| 20260503233725 | 76 | 135 | 2.6 | 5.2 | 0.00 | 0.00 | 0.00 | 43 | 1018.9 |
| 20260503233220 | 76 | 117 | 4.3 | 7.8 | 0.00 | 0.00 | 0.00 | 41 | 1019.1 |
| 20260503232717 | 76 | 168 | 5.2 | 7.0 | 0.00 | 0.00 | 0.00 | 40 | 1019.3 |
| 20260503232214 | 77 | 57 | 3.5 | 7.0 | 0.00 | 0.00 | 0.00 | 40 | 1019.3 |
| 20260503231713 | 77 | 84 | 1.7 | 5.2 | 0.00 | 0.00 | 0.00 | 41 | 1019.3 |
| 20260503231209 | 77 | 148 | 2.6 | 7.8 | 0.00 | 0.00 | 0.00 | 40 | 1019.0 |
| 20260503230705 | 77 | 104 | 2.6 | 5.2 | 0.00 | 0.00 | 0.00 | 40 | 1019.3 |
| 20260503230202 | 78 | 165 | 5.2 | 7.8 | 0.00 | 0.00 | 0.00 | 40 | 1019.3 |
| 20260503225700 | 78 | 115 | 1.7 | 3.5 | 0.00 | 0.00 | 0.00 | 40 | 1019.2 |
| 20260503225159 | 78 | 102 | 2.6 | 5.2 | 0.00 | 0.00 | 0.00 | 38 | 1019.2 |
| 20260503224657 | 78 | 133 | 3.5 | 5.2 | 0.00 | 0.00 | 0.00 | 39 | 1019.4 |
| 20260503224155 | 78 | 112 | 0.9 | 3.5 | 0.00 | 0.00 | 0.00 | 40 | 1019.3 |
| 20260503223653 | 79 | 122 | 5.2 | 7.8 | 0.00 | 0.00 | 0.00 | 39 | 1019.5 |
| 20260503223149 | 79 | 25 | 0.9 | 3.5 | 0.00 | 0.00 | 0.00 | 39 | 1019.7 |
| 20260503222646 | 78 | 312 | 0.9 | 5.2 | 0.00 | 0.00 | 0.00 | 39 | 1019.5 |
| 20260503222144 | 79 | 343 | 2.6 | 5.2 | 0.00 | 0.00 | 0.00 | 40 | 1019.7 |
| 20260503221642 | 78 | 137 | 4.3 | 6.1 | 0.00 | 0.00 | 0.00 | 40 | 1019.8 |
| 20260503221139 | 78 | 138 | 3.5 | 5.2 | 0.00 | 0.00 | 0.00 | 39 | 1019.8 |
| 20260503220636 | 78 | 129 | 1.7 | 7.0 | 0.00 | 0.00 | 0.00 | 40 | 1019.8 |
| 20260503220132 | 77 | 128 | 0.9 | 3.5 | 0.00 | 0.00 | 0.00 | 42 | 1019.7 |
| 20260503215630 | 77 | 110 | 1.7 | 7.0 | 0.00 | 0.00 | 0.00 | 41 | 1019.9 |
| 20260503215126 | 77 | 98 | 0.9 | 3.5 | 0.00 | 0.00 | 0.00 | 41 | 1019.8 |
| 20260503214625 | 77 | 150 | 3.5 | 6.1 | 0.00 | 0.00 | 0.00 | 41 | 1019.9 |
| 20260503214121 | 80 | 107 | 5.2 | 7.0 | 0.00 | 0.00 | 0.00 | 38 | 1020.0 |
| 20260503213620 | 79 | 125 | 2.6 | 8.7 | 0.00 | 0.00 | 0.00 | 39 | 1020.1 |
| 20260503213116 | 80 | 129 | 5.2 | 9.6 | 0.00 | 0.00 | 0.00 | 36 | 1020.3 |
| 20260503212614 | 82 | 148 | 3.5 | 5.2 | 0.00 | 0.00 | 0.00 | 32 | 1020.2 |
| 20260503212111 | 81 | 171 | 2.6 | 5.2 | 0.00 | 0.00 | 0.00 | 32 | 1020.0 |
| 20260503211609 | 81 | 148 | 3.5 | 5.2 | 0.00 | 0.00 | 0.00 | 31 | 1020.3 |
| 20260503211103 | 80 | 155 | 0.9 | 1.7 | 0.00 | 0.00 | 0.00 | 32 | 1020.2 |
| 20260503210600 | 80 | 127 | 1.7 | 5.2 | 0.00 | 0.00 | 0.00 | 30 | 1020.4 |
| 20260503210056 | 81 | 162 | 3.5 | 7.0 | 0.00 | 0.00 | 0.00 | 32 | 1020.6 |
| 20260503205553 | 80 | 111 | 1.7 | 1.7 | 0.00 | 0.00 | 0.00 | 32 | 1020.4 |
| 20260503205049 | 80 | 43 | 2.6 | 5.2 | 0.00 | 0.00 | 0.00 | 32 | 1020.6 |
| 20260503204546 | 80 | 205 | 3.5 | 7.8 | 0.00 | 0.00 | 0.00 | 34 | 1020.7 |
| 20260503204044 | 81 | 144 | 2.6 | 2.6 | 0.00 | 0.00 | 0.00 | 32 | 1020.8 |
| 20260503203541 | 80 | 149 | 3.5 | 6.1 | 0.00 | 0.00 | 0.00 | 32 | 1020.6 |
| 20260503203038 | 81 | 46 | 1.7 | 6.1 | 0.00 | 0.00 | 0.00 | 30 | 1020.9 |
| 20260503202536 | 82 | 142 | 2.6 | 5.2 | 0.00 | 0.00 | 0.00 | 31 | 1021.1 |
| 20260503202033 | 81 | 331 | 0.0 | 1.7 | 0.00 | 0.00 | 0.00 | 34 | 1021.0 |
| 20260503201531 | 80 | 145 | 3.5 | 7.8 | 0.00 | 0.00 | 0.00 | 33 | 1021.3 |
| 20260503201028 | 81 | 117 | 1.7 | 6.1 | 0.00 | 0.00 | 0.00 | 31 | 1021.6 |
| 20260503200524 | 82 | 104 | 1.7 | 5.2 | 0.00 | 0.00 | 0.00 | 34 | 1021.3 |
| 20260503200021 | 81 | 44 | 0.0 | 0.9 | 0.00 | 0.00 | 0.00 | 35 | 1021.6 |
| 20260503195518 | 80 | 124 | 0.9 | 7.0 | 0.00 | 0.00 | 0.00 | 31 | 1021.5 |
| 20260503195015 | 81 | 142 | 2.6 | 6.1 | 0.00 | 0.00 | 0.00 | 33 | 1021.4 |
| 20260503194513 | 81 | 294 | 0.9 | 5.2 | 0.00 | 0.00 | 0.00 | 35 | 1021.4 |
| 20260503194012 | 82 | 119 | 3.5 | 5.2 | 0.00 | 0.00 | 0.00 | 34 | 1021.6 |
| 20260503193509 | 82 | 338 | 0.9 | 3.5 | 0.00 | 0.00 | 0.00 | 32 | 1021.7 |
| 20260503193004 | 81 | 45 | 1.7 | 5.2 | 0.00 | 0.00 | 0.00 | 33 | 1021.7 |
| 20260503192500 | 81 | 10 | 0.9 | 5.2 | 0.00 | 0.00 | 0.00 | 35 | 1021.6 |
| 20260503191955 | 81 | 57 | 0.9 | 5.2 | 0.00 | 0.00 | 0.00 | 31 | 1021.7 |
| 20260503191454 | 81 | 359 | 1.7 | 3.5 | 0.00 | 0.00 | 0.00 | 31 | 1022.0 |
| 20260503190949 | 81 | 14 | 0.9 | 0.9 | 0.00 | 0.00 | 0.00 | 33 | 1022.2 |
| 20260503190447 | 80 | 124 | 0.9 | 6.1 | 0.00 | 0.00 | 0.00 | 34 | 1022.2 |
| 20260503185944 | 81 | 115 | 3.5 | 5.2 | 0.00 | 0.00 | 0.00 | 33 | 1022.2 |